Zurück zum Katalog

COSMOS 1375 DEB

AktivLEO
NORAD 17108·DEBRIS·🇷🇺 Russia

Gestartet Jun 6, 1982 von Plesetsk Cosmodrome

Loading…

Nächste Überflüge (nächste 24 Stunden)

TLE

AktuellSource: Space-Track

Epoche: Sep 14, 2026, 06:43 UTC

1 17108U 82055AK  26257.28015573  .00000225  00000-0  28444-3 0  9994
2 17108  65.8298  76.5422 0026777 265.5456 269.4430 13.82105624 55117

Verfolge COSMOS 1375 DEB in Echtzeit mit AllMySat

Download on the App Store